Regional Weather Roundup
Issued by NWS

Home | Current Version | Previous Version | Graphics & Text | Print | Product List | Glossary On
Versions: 1 2 3 4 5 6 7 8 9 10 11 12 13 14 15 16 17 18 19 20 21 22 23 24 25 26 27 28 29 30 31 32 33 34 35 36 37 38 39 40 41 42 43 44 45 46 47 48 49 50
606
ASUS43 KOAX 080910
RWRNE

WEATHER ROUNDUP FOR NEBRASKA
NATIONAL WEATHER SERVICE OMAHA NE
300 AM CST THU DEC 08 2016

NOTES: SATELLITE DATA IS BEING USED TO AUGMENT CLOUD COVER ABOVE
       12000 FEET.
       "FAIR" INDICATES FEW OR NO CLOUDS BELOW 12,000 FEET WITH NO
       SIGNIFICANT WEATHER AND/OR OBSTRUCTIONS TO VISIBILITY.

  * THESE STATIONS DO NOT REPORT WEATHER SUCH AS RAIN...SNOW OR FOG.

NEZ001>004-019>022-054>056-081000-
NEBRASKA PANHANDLE

CITY           SKY/WX    TMP DP  RH WIND       PRES   REMARKS
SCOTTSBLUFF    CLOUDY    -6 -12  75 W3        30.51R
ALLIANCE       CLEAR    -10 -15  78 W12       30.47R WCI -30
CHADRON        CLEAR      1  -7  68 VRB3      30.53R
KIMBALL        CLOUDY    -6 -10  81 W10       30.43R WCI -24
SIDNEY         CLEAR     -5 -11  75 W12       30.47R WCI -23
$$

NEZ057>060-069>072-079>082-081000-
SOUTHWEST NEBRASKA

CITY           SKY/WX    TMP DP  RH WIND       PRES   REMARKS
NORTH PLATTE   CLEAR      2  -3  80 W8        30.56R WCI -12
IMPERIAL       CLEAR      1  -7  68 NW15      30.53R WCI -18
LEXINGTON      CLEAR      8   0  72 NW14      30.55R WCI  -9
MCCOOK         CLEAR      0  -6  76 W8        30.58R WCI -14
OGALLALA       CLEAR      0  -6  76 NW7       30.53S WCI -13
$$

NEZ005>010-023>029-035>040-094-081000-
NORTH CENTRAL NEBRASKA

CITY           SKY/WX    TMP DP  RH WIND       PRES   REMARKS
VALENTINE      CLEAR      5  -5  63 NW13      30.53R WCI -12
AINSWORTH      CLEAR      6  -1  72 NW15G22   30.51R WCI -12
BROKEN BOW     CLEAR      8  -1  66 NW22G30   30.51R WCI -12
O`NEILL        CLEAR      8   0  69 NW20G28   30.50R WCI -12
ORD            CLEAR      8  -3  61 NW17G24   30.52R WCI -10
THEDFORD       PTCLDY     3  -3  77 NW9       30.52R WCI -11
$$

NEZ041-046>049-061>064-073>077-083>087-081000-
SOUTH CENTRAL NEBRASKA

CITY           SKY/WX    TMP DP  RH WIND       PRES   REMARKS
GRAND ISLAND   CLEAR      9   1  70 NW13      30.54R WCI  -7
AURORA         CLEAR     11   1  63 NW21      30.52R WCI  -8
HASTINGS       CLEAR     11   0  61 NW15      30.54R WCI  -5
HEBRON         CLEAR     13   4  68 NW9       30.57R WCI   1
HOLDREGE       CLEAR      8   0  70 NW12      30.54R WCI  -7
KEARNEY *      CLEAR     10  -2  56 NW10      30.54R WCI  -3
YORK           CLEAR     10   1  67 NW16G22   30.52R WCI  -7
$$

NEZ011>018-030>034-042>045-081000-
NORTHEAST NEBRASKA

CITY           SKY/WX    TMP DP  RH WIND       PRES   REMARKS
NORFOLK        CLEAR      8  -1  66 NW22      30.48R WCI -12
ALBION         CLEAR      9   0  65 NW16G23   30.50R WCI  -8
BLAIR          PTCLDY    13   6  72 NW12G18   30.47R WCI  -1
FREMONT        CLEAR     11   5  74 NW18      30.51R WCI  -6
TEKAMAH        CLEAR     12   3  67 NW20G29   30.50R WCI  -6
WAYNE          CLEAR     10   2  72 NW20G28   30.48R WCI  -9
$$

NEZ050>053-065>068-078-088>093-081000-
SOUTHEAST NEBRASKA

CITY           SKY/WX    TMP DP  RH WIND       PRES   REMARKS
LINCOLN        CLEAR     14   3  61 NW13      30.54R WCI   0
OMAHA EPPLEY   PTCLDY    14   4  64 NW17G26   30.50R WCI  -3
BEATRICE       CLEAR     14   4  65 NW17      30.54R WCI  -2
FALLS CITY     CLEAR     16   5  62 NW17G26   30.51R WCI   0
NEBRASKA CITY  CLEAR     14   2  57 NW15G21   30.50R WCI  -1
PLATTSMOUTH    CLEAR     14   3  61 W13       30.49R WCI  -1
$$

NEZ044-045-051>053-067-081000-
OMAHA AREA

CITY           SKY/WX    TMP DP  RH WIND       PRES   REMARKS
OMAHA EPPLEY   PTCLDY    14   4  64 NW17G26   30.50R WCI  -3
BLAIR          PTCLDY    13   6  72 NW12G18   30.47R WCI  -1
FREMONT        CLEAR     11   5  74 NW18      30.51R WCI  -6
MILLARD        CLEAR     15   4  62 NW15G24   30.50S WCI   0
OFFUTT AFB     CLEAR     14   4  66 NW16G24   30.50R WCI  -2
PLATTSMOUTH    CLEAR     14   3  61 W13       30.49R WCI  -1
WAHOO          FAIR      13   4  66 NW15G24   30.51R WCI  -3
$$




USA.gov is the U.S. government's official web portal to all federal, state and local government web resources and services.